Regional Weather Roundup
Issued by NWS

Home | Current Version | Previous Version | Text Only | Print | Product List | Glossary Off
Versions: 1 2 3 4 5 6 7 8 9 10 11 12 13 14 15 16 17 18 19 20 21 22 23 24 25 26 27 28 29 30 31 32 33 34 35 36 37 38 39 40 41 42 43 44 45 46 47 48 49 50

000
ASUS43 KLSX 121607
RWRMO

WEATHER SUMMARY FOR MISSOURI
NATIONAL WEATHER SERVICE SPRINGFIELD MO
1000 AM CST TUE DEC 12 2017

NOTE: "FAIR" INDICATES FEW OR NO CLOUDS BELOW 12,000 FEET WITH NO
       SIGNIFICANT WEATHER AND/OR OBSTRUCTIONS TO VISIBILITY.
       CURRENT SKY AND/OR WEATHER CONDITIONS ARE NOT AVAILABLE FOR
       CHILLICOTHE AND FARMINGTON.

MOZ001>031-035>038-043-044-053-054-121700-
...NORTHERN AND WESTERN MISSOURI...

CITY           SKY/WX    TMP DP  RH WIND       PRES   REMARKS
KANSAS CTY INT MOSUNNY   25  16  68 NW8       30.36R WCI  16
KANSAS C DTWN  SUNNY     27  14  58 NW9       30.37R WCI  18
LEE`S SUMMIT   SUNNY     27  13  55 NW9       30.35S WCI  18
ST JOSEPH      SUNNY     25  18  74 NW7       30.36S WCI  17
CHILLICOTHE      N/A     25  10  53 NW8       30.34R WCI  16
KIRKSVILLE     SUNNY     23   9  55 NW9       30.28S WCI  13

$$
MOZ066>068-077>081-088>096-101>105-121700-
...SOUTHWEST MISSOURI...

CITY           SKY/WX    TMP DP  RH WIND       PRES   REMARKS
SPRINGFIELD    SUNNY     31  16  54 N12       30.30S WCI  22
JOPLIN         SUNNY     31  19  61 N9        30.38R WCI  23
BRANSON        SUNNY     32  18  55 NW7       30.32R WCI  26

$$
MOZ032>034-039>042-045>050-055>058-069>072-121700-
...CENTRAL MISSOURI...

CITY           SKY/WX    TMP DP  RH WIND       PRES   REMARKS
COLUMBIA       SUNNY     27  13  55 NW10      30.29S WCI  17
JEFFERSON CITY SUNNY     27  15  61 W10       30.32S WCI  17
ROLLA          SUNNY     27  16  63 NW13      30.27R WCI  16
SEDALIA        SUNNY     27  16  63 NW10      30.34R WCI  17
WHITEMAN AFB   MOSUNNY   26  11  52 NW8       30.30S WCI  18
WARRENSBURG    SUNNY     28  12  50 W6        30.36R WCI  22
OSAGE BEACH    SUNNY     28  15  58 VRB5      30.33R WCI  23

$$
MOZ051-052-059>065-121700-
...EAST CENTRAL MISSOURI...

CITY           SKY/WX    TMP DP  RH WIND       PRES   REMARKS
ST LOUIS INTL  MOSUNNY   30  17  58 NW17      30.25R WCI  18
SPIRIT OF STL  MOSUNNY   30  16  56 NW15      30.26S WCI  19
ST CHARLES     SUNNY     30  16  56 NW15      30.25S WCI  19

$$
MOZ072>076-082>087-097>100-106>115-121700-
...SOUTH CENTRAL AND SOUTHEAST MISSOURI...

CITY           SKY/WX    TMP DP  RH WIND       PRES   REMARKS
CAPE GIRARDEAU SUNNY     35  18  49 N22G28    30.23R WCI  23
FARMINGTON     SUNNY     31  19  61 NW16      30.22R WCI  20
POPLAR BLUFF   SUNNY     40  22  48 NW10      30.23R
WEST PLAINS    SUNNY     33  18  53 NW12      30.26R WCI  24

$$



USA.gov is the U.S. government's official web portal to all federal, state and local government web resources and services.